Vertical_Velocity
-1 3 -0 -1 0 -2 -0 1 -5 -0 -2 -8 1 -1 -1 1 -0 -1 -0 -1 -1 -2 -0 -0 0 -2 -1 0 -2 -1 -1 -3 -1 -6 0 -1 -1 -2 -3 -5 -3 -1 -2 -23
1 -1 2 -2 -0 -0 -1 0 0 2 1 -5 -1 1 0 -1 0 -0 1 -0 -1 -0 -1 -3 -0 0 -1 0 -0 -3 -4 -2 -4 -12 -9 -2 1 -0 -1 -1 -2 -3 -4 -17
1 1 -1 2 -0 -1 -0 -1 -7 1 3 0 -4 -1 0 1 1 0 -0 -1 -1 -1 -0 -0 -1 1 1 0 -0 0 -2 -0 -4 -9 -7 -4 1 1 0 -3 -1 -3 -10 -11
1 2 -2 -1 -0 1 -2 -1 0 -0 -3 -3 -0 -1 -1 -0 -0 0 1 -0 -1 -1 -0 -0 -0 0 1 0 3 0 -5 -1 0 -2 -1 1 -1 -0 -0 1 -7 -2 -15 -1
-1 -1 3 -3 -0 0 -3 0 -2 -1 -0 1 -0 -1 -0 -1 0 -3 -0 -0 0 -0 -1 -5 -2 -2 -0 -4 0 -0 -0 -2 -0 -2 -1 1 0 -1 0 -0 -1 2 3 -13
-2 -1 -3 -1 -1 -2 -2 -2 -2 0 1 -0 -2 -3 -2 -3 -1 -0 -1 -2 -1 1 -4 -0 -1 0 1 -0 -5 -0 -1 -1 -2 -4 0 -0 -2 -5 -2 -1 0 -5 -1 -17
0 -1 -2 -2 -5 -1 -2 -3 -1 -2 -1 -0 -2 -0 0 -0 -1 -3 0 0 -1 -2 -0 2 3 2 1 -0 -0 -1 -1 -1 -1 -2 -4 -6 -13 -0 -2 -3 -2 0 1 -2
0 0 -2 -4 -0 -5 -1 -2 -3 -2 -1 -0 -0 -0 -0 0 -0 -0 1 0 3 1 -1 -3 -3 -3 -1 0 0 1 -1 -2 -1 -3 -1 -14 -2 -0 -4 -4 -10 -1 -2 -2
-1 0 -0 0 -4 -2 -2 -4 -2 0 -3 -4 2 0 0 -1 -0 -2 -1 -0 2 2 -2 -1 -1 -2 -2 1 1 -0 -1 -1 -5 0 -0 -1 -6 -1 0 -0 -7 0 -1 -1
0 -2 -1 -1 0 -1 -2 -3 -4 -5 -1 1 -0 -1 -2 1 0 -1 0 -0 -1 2 -0 0 -1 -2 -4 -2 -1 0 0 1 -2 -0 -0 -11 -5 -2 -0 -2 -13 0 1 3
0 -1 -2 -1 -1 -0 -1 1 -1 -2 -3 -2 0 -0 0 1 -0 -2 0 -4 -0 -1 -0 -0 -2 0 -3 0 -3 -5 -6 -5 -1 2 3 -11 1 -1 -6 -8 -3 2 -2 -2
-1 -1 -0 -1 -1 -1 -1 -3 -1 1 -0 -2 2 2 3 -2 2 0 0 0 -1 -2 -3 -0 -0 0 0 -2 -3 -0 -4 -9 -10 -11 -18 -3 -1 1 4 5 4 -2 4 -1
-0 -2 -3 -1 -0 -1 -1 -4 -3 -3 -4 1 -1 -0 1 2 -3 1 2 1 -1 1 1 -3 -1 0 -3 -1 -5 1 -1 0 -0 0 -5 -1 -1 3 3 2 3 0 4 3
-3 -1 -3 -5 -1 -2 2 -1 -3 0 -3 1 -0 -4 -1 3 2 0 -1 1 3 1 -0 -0 -1 0 0 -2 -1 0 -3 1 -2 -5 -5 -6 2 5 4 -10 -4 0 -2 3
-2 -1 -4 -3 -1 -1 1 -0 -2 2 1 -1 -4 5 1 -2 3 1 0 3 5 2 -0 -0 -2 -0 -0 0 0 0 -3 -6 -3 -7 1 -2 -8 -10 3 1 -3 1 0 -8
1 3 -1 -5 -2 -2 2 -1 -3 -3 4 -1 -3 2 1 -1 1 -2 -1 -2 -0 1 -0 -2 1 3 2 1 -0 -6 -1 1 3 -3 -3 4 2 -0 -2 -5 -4 0 1 5
-1 -1 5 -2 1 -3 -3 1 2 0 -1 -0 -4 -2 1 -3 2 3 2 3 1 -3 -2 -1 -0 -2 2 1 0 -5 1 2 4 4 -3 -4 -1 -6 -2 4 2 -1 1 2
-1 -3 -1 2 0 -2 -0 -2 1 -1 -1 1 1 -4 -2 -2 -2 -0 -0 2 1 1 0 2 -0 2 1 0 -7 -3 3 -2 0 4 2 3 2 3 3 5 1 -0 3 1
0 -4 -0 4 3 -2 1 -2 -4 -1 2 2 2 1 -4 3 -0 0 -1 1 0 1 0 -1 -0 -0 -3 -8 -2 1 1 -1 -2 -1 2 2 1 0 1 -3 -5 -2 -4 -4
-2 -2 0 -2 -2 1 1 1 -0 -0 -0 2 0 -0 -3 -1 -0 0 -0 0 -0 -0 -4 1 1 -5 -2 -4 -3 -0 1 -0 -2 -5 -16 -10 -6 -2 -8 -3 2 5 3 -5
-2 -1 -1 -4 -3 -0 -1 2 0 1 1 0 -1 0 0 2 -0 -1 2 -0 0 1 -5 -2 -0 -3 -3 2 -0 6 -4 -7 -1 -0 -2 -3 -2 -3 -4 -9 -5 4 7 1
-5 -3 -3 1 -2 2 -1 -1 2 2 -4 -1 1 -0 -1 1 -1 0 1 0 1 -1 -1 -1 -1 -7 1 2 8 3 1 2 -0 4 0 2 2 6 4 2 -2 -3 -6 -7
-1 -1 2 -3 1 1 3 -1 -0 1 -1 -3 -0 -0 0 -0 1 0 1 2 -1 -0 1 -3 -7 -2 6 2 4 3 6 6 7 -1 5 4 -1 3 4 -5 3 3 -1 -5
-0 -3 0 -4 -1 -1 -3 -3 -3 -1 0 1 0 0 -1 0 0 -1 2 -3 0 1 1 -8 -3 1 -0 4 2 -4 -12 -9 -10 -9 -8 -6 -3 -7 0 -2 -3 1 -9 -7
-1 -1 -3 0 -5 1 -0 -0 0 1 -2 -1 -0 0 1 -0 0 0 0 3 -1 -3 -6 -3 -0 -1 1 -4 -4 -1 2 1 2 5 1 2 3 3 -5 12 5 0 -8 1
-0 3 2 -1 -0 -0 -1 -1 -2 -0 1 2 3 -1 1 -1 -1 3 -3 2 -4 -9 -2 -4 -2 -7 -2 -1 -4 -4 0 7 1 -3 1 -3 -5 -4 -7 -7 -7 -1 2 -2
3 -3 -2 5 -0 -3 -4 -1 -6 4 1 -1 -0 2 -13 -3 1 1 -2 -5 -5 -3 -1 1 6 -1 -8 -10 -5 -2 -2 -6 -2 -3 -5 -6 -4 2 -0 -10 -15 1 -6 -0
Height
1528 1525 1521 1517 1516 1515 1516 1516 1516 1516 1515 1517 1522 1533 1529 1530 1531 1531 1531 1531 1532 1536 1538 1538 1541 1541 1541 1539 1541 1543 1545 1552 1561 1549 1548 1548 1550 1552 1555 1563 1560 1570 1571 1537
1530 1526 1522 1519 1517 1516 1516 1516 1517 1517 1517 1528 1534 1530 1530 1530 1531 1532 1532 1532 1532 1534 1536 1540 1539 1539 1539 1539 1540 1543 1543 1551 1571 1554 1552 1549 1548 1548 1548 1553 1558 1564 1566 1521
1533 1529 1525 1521 1519 1517 1518 1517 1521 1519 1519 1521 1524 1528 1530 1531 1531 1531 1531 1532 1532 1534 1536 1536 1537 1538 1538 1539 1539 1540 1541 1551 1548 1552 1537 1542 1544 1542 1544 1544 1562 1546 1525 1500
1535 1532 1528 1524 1521 1518 1519 1518 1521 1523 1529 1525 1525 1526 1528 1529 1529 1529 1529 1530 1531 1533 1535 1536 1536 1537 1538 1538 1539 1540 1542 1547 1552 1544 1542 1540 1535 1533 1537 1538 1530 1530 1495 1509
1537 1534 1531 1527 1523 1521 1520 1521 1522 1524 1525 1526 1526 1527 1528 1528 1529 1529 1530 1531 1530 1532 1534 1534 1535 1536 1537 1537 1540 1541 1544 1549 1548 1548 1535 1537 1533 1526 1525 1525 1522 1517 1509 1505
1539 1536 1533 1530 1527 1524 1522 1524 1524 1525 1528 1528 1530 1528 1526 1525 1525 1527 1528 1529 1531 1533 1532 1531 1532 1533 1534 1535 1538 1542 1546 1550 1552 1545 1538 1537 1528 1510 1511 1514 1513 1510 1514 1491
1539 1537 1535 1532 1529 1527 1526 1525 1525 1525 1530 1530 1529 1527 1527 1527 1526 1526 1524 1526 1528 1528 1528 1529 1529 1530 1532 1534 1535 1537 1545 1547 1553 1551 1541 1539 1501 1501 1502 1505 1500 1499 1494 1489
1539 1538 1536 1533 1531 1530 1528 1527 1527 1526 1529 1529 1528 1528 1528 1527 1526 1527 1526 1526 1526 1526 1527 1530 1530 1533 1530 1533 1534 1536 1536 1542 1550 1556 1562 1519 1494 1498 1501 1500 1491 1486 1489 1485
1539 1538 1536 1534 1533 1531 1530 1528 1527 1526 1527 1527 1527 1526 1526 1528 1529 1527 1526 1526 1525 1526 1527 1531 1528 1528 1523 1528 1535 1536 1538 1539 1545 1554 1551 1521 1494 1493 1493 1494 1496 1483 1484 1481
1538 1537 1536 1534 1533 1531 1530 1528 1528 1527 1526 1524 1524 1525 1525 1525 1525 1527 1526 1525 1526 1527 1530 1530 1533 1532 1526 1526 1527 1535 1541 1544 1541 1546 1546 1518 1492 1491 1494 1494 1493 1483 1482 1480
1536 1535 1534 1533 1532 1530 1530 1529 1527 1527 1525 1522 1522 1522 1522 1522 1524 1525 1525 1527 1526 1528 1530 1530 1529 1530 1524 1521 1518 1524 1526 1534 1535 1536 1538 1525 1485 1490 1493 1486 1481 1479 1477 1474
1533 1533 1532 1531 1530 1529 1527 1527 1526 1524 1523 1520 1519 1519 1518 1520 1521 1521 1520 1522 1521 1521 1526 1529 1528 1525 1526 1522 1518 1514 1516 1508 1516 1514 1499 1483 1484 1482 1484 1484 1482 1477 1473 1467
1530 1530 1530 1530 1529 1527 1526 1524 1524 1521 1520 1515 1513 1514 1513 1513 1516 1519 1519 1517 1518 1519 1519 1519 1521 1522 1520 1520 1519 1509 1503 1501 1504 1501 1481 1483 1482 1483 1482 1479 1475 1469 1466 1461
1526 1526 1526 1527 1527 1525 1524 1522 1522 1522 1521 1518 1512 1511 1512 1512 1511 1512 1515 1516 1516 1516 1517 1518 1518 1518 1511 1511 1509 1508 1500 1501 1499 1496 1483 1480 1477 1477 1476 1471 1467 1463 1460 1457
1523 1523 1522 1523 1523 1523 1522 1519 1518 1519 1521 1517 1510 1507 1505 1507 1507 1507 1509 1512 1513 1515 1516 1515 1516 1511 1511 1508 1506 1499 1491 1490 1493 1490 1485 1485 1482 1477 1472 1466 1461 1456 1453 1447
1518 1519 1519 1519 1520 1520 1521 1518 1518 1519 1519 1516 1513 1507 1503 1504 1504 1504 1504 1505 1509 1513 1513 1513 1510 1508 1509 1509 1503 1484 1482 1483 1483 1483 1483 1480 1477 1474 1471 1465 1458 1453 1449 1445
1514 1516 1516 1515 1516 1516 1520 1520 1520 1519 1520 1518 1512 1505 1503 1503 1505 1502 1502 1503 1504 1507 1509 1510 1509 1509 1511 1506 1498 1482 1482 1483 1484 1481 1478 1474 1474 1471 1466 1462 1457 1453 1450 1446
1511 1513 1515 1513 1512 1513 1515 1515 1517 1518 1520 1519 1514 1502 1502 1502 1503 1503 1503 1502 1501 1504 1504 1506 1505 1505 1503 1497 1477 1480 1481 1481 1483 1482 1480 1477 1471 1466 1462 1458 1453 1448 1443 1440
1509 1511 1513 1512 1510 1510 1511 1511 1513 1516 1522 1516 1512 1507 1506 1501 1500 1502 1503 1503 1503 1503 1501 1502 1503 1502 1495 1474 1475 1477 1479 1478 1478 1477 1475 1472 1468 1463 1457 1453 1449 1445 1440 1435
1507 1510 1511 1509 1511 1511 1512 1510 1511 1513 1514 1512 1507 1504 1504 1501 1501 1501 1501 1503 1504 1505 1500 1500 1500 1492 1471 1474 1474 1475 1477 1479 1477 1474 1467 1463 1459 1458 1457 1454 1449 1444 1438 1433
1507 1507 1508 1509 1510 1511 1511 1511 1510 1509 1507 1504 1501 1499 1499 1500 1503 1502 1499 1497 1499 1500 1502 1501 1497 1488 1471 1468 1467 1477 1478 1478 1477 1474 1471 1469 1466 1460 1454 1448 1444 1438 1432 1426
1504 1506 1507 1509 1509 1509 1511 1511 1509 1505 1500 1500 1497 1496 1497 1497 1499 1501 1500 1499 1499 1495 1497 1498 1498 1479 1474 1472 1472 1473 1473 1471 1470 1469 1465 1460 1458 1454 1446 1441 1435 1430 1425 1419
1502 1505 1505 1504 1509 1511 1506 1513 1500 1499 1495 1495 1496 1494 1496 1497 1497 1498 1500 1498 1496 1497 1499 1497 1482 1472 1472 1474 1474 1471 1469 1466 1461 1458 1456 1452 1447 1444 1439 1432 1428 1421 1414 1411
1500 1502 1505 1501 1507 1499 1493 1493 1494 1492 1491 1492 1495 1495 1496 1497 1498 1496 1495 1495 1498 1495 1497 1492 1473 1469 1469 1469 1469 1468 1462 1459 1455 1450 1446 1442 1438 1432 1428 1424 1417 1411 1405 1401
1500 1500 1499 1492 1487 1487 1486 1490 1490 1489 1489 1493 1495 1496 1496 1496 1495 1494 1493 1492 1488 1483 1484 1472 1467 1467 1466 1464 1462 1458 1453 1449 1444 1439 1435 1432 1428 1423 1415 1412 1406 1401 1396 1391
1495 1491 1488 1489 1487 1485 1486 1487 1487 1487 1488 1492 1493 1493 1493 1489 1489 1489 1486 1484 1476 1474 1465 1463 1463 1462 1459 1458 1455 1452 1448 1444 1439 1434 1430 1425 1420 1414 1406 1399 1394 1390 1386 1380
1485 1481 1482 1481 1482 1480 1480 1482 1484 1486 1487 1489 1492 1492 1489 1485 1483 1480 1478 1475 1463 1459 1459 1458 1456 1455 1453 1451 1446 1442 1438 1434 1430 1425 1419 1414 1408 1402 1396 1388 1381 1378 1373 1368